| time (UTC) | temp F | wind direction | speed MPH | gust MPH | rain 1hr in | rain 24hr in | rain mn in | humidity % | barometer mb |
| 20260506190020 | 54 | 223 | 2.0 | 8.0 | 0.27 | 0.27 | 0.27 | 95 | |
| 20260506183111 | 54 | 188 | 1.0 | 13.0 | 0.18 | 0.18 | 0.18 | 89 | |
| 20260506180021 | 60 | 244 | 3.0 | 7.0 | 0.00 | 0.00 | 0.00 | 73 | |
| 20260506173052 | 62 | 230 | 2.0 | 7.0 | 0.00 | 0.00 | 0.00 | 68 | |
| 20260506170021 | 63 | 177 | 1.0 | 6.0 | 0.00 | 0.00 | 0.00 | 68 | |
| 20260506163054 | 63 | 111 | 2.0 | 4.0 | 0.00 | 0.00 | 0.00 | 68 | |
| 20260506160023 | 65 | 287 | 3.0 | 8.0 | 0.00 | 0.00 | 0.00 | 62 | |
| 20260506153134 | 67 | 154 | 1.0 | 3.0 | 0.00 | 0.00 | 0.00 | 53 | |
| 20260506150024 | 67 | 146 | 1.0 | 3.0 | 0.00 | 0.00 | 0.00 | 53 | |
| 20260506143055 | 69 | 194 | 1.0 | 4.0 | 0.00 | 0.00 | 0.00 | 52 | |
| 20260506140025 | 68 | 140 | 1.0 | 6.0 | 0.00 | 0.00 | 0.00 | 52 | |
| 20260506133056 | 68 | 127 | 1.0 | 6.0 | 0.00 | 0.00 | 0.00 | 55 | |
| 20260506130046 | 66 | 109 | 1.0 | 3.0 | 0.00 | 0.00 | 0.00 | 58 | |
| 20260506123057 | 66 | 124 | 1.0 | 7.0 | 0.00 | 0.00 | 0.00 | 58 | |
| 20260506120026 | 65 | 105 | 1.0 | 4.0 | 0.00 | 0.00 | 0.00 | 61 | |
| 20260506113058 | 64 | 118 | 1.0 | 6.0 | 0.00 | 0.00 | 0.00 | 61 | |
| 20260506110028 | 64 | 120 | 1.0 | 6.0 | 0.00 | 0.00 | 0.00 | 62 | |
| 20260506103101 | 65 | 126 | 1.0 | 4.0 | 0.00 | 0.00 | 0.00 | 61 | |
| 20260506100029 | 65 | 132 | 1.0 | 4.0 | 0.00 | 0.00 | 0.00 | 63 | |
| 20260506093120 | 63 | 122 | 1.0 | 4.0 | 0.00 | 0.00 | 0.00 | 67 | |
| 20260506090029 | 63 | 117 | 1.0 | 3.0 | 0.00 | 0.00 | 0.00 | 70 | |
| 20260506083101 | 60 | 143 | 1.0 | 3.0 | 0.00 | 0.00 | 0.00 | 73 | |
| 20260506073104 | 59 | 116 | 1.0 | 4.0 | 0.00 | 0.00 | 0.00 | 79 | |
| 20260506050134 | 47 | 126 | 0.0 | 2.0 | 0.00 | 0.00 | 0.00 | 96 | |
| 20260506043105 | 47 | 135 | 0.0 | 3.0 | 0.00 | 0.00 | 0.00 | 96 | |
| 20260506040034 | 47 | 150 | 0.0 | 3.0 | 0.00 | 0.00 | 0.00 | 97 | |
| 20260506033106 | 46 | 113 | 1.0 | 3.0 | 0.00 | 0.00 | 0.00 | 97 | |
| 20260506030036 | 47 | 110 | 0.0 | 2.0 | 0.00 | 0.00 | 0.00 | 96 | |
| 20260506023107 | 47 | 129 | 1.0 | 3.0 | 0.00 | 0.00 | 0.00 | 96 | |
| 20260506020037 | 48 | 136 | 1.0 | 4.0 | 0.00 | 0.00 | 0.00 | 96 | |
| 20260506013108 | 48 | 131 | 0.0 | 1.0 | 0.00 | 0.00 | 0.00 | 96 | |
| 20260506010038 | 49 | 122 | 0.0 | 2.0 | 0.00 | 0.00 | 0.00 | 95 | |
| 20260506003108 | 50 | 0.0 | 1.0 | 0.00 | 0.00 | 0.00 | 93 | ||
| 20260506000038 | 52 | 149 | 0.0 | 3.0 | 0.00 | 0.00 | 0.00 | 91 | |
| 20260505233131 | 52 | 150 | 1.0 | 4.0 | 0.00 | 0.00 | 0.00 | 92 | |
| 20260505230039 | 51 | 118 | 0.0 | 2.0 | 0.00 | 0.00 | 0.00 | 94 | |
| 20260505223110 | 52 | 118 | 0.0 | 2.0 | 0.00 | 0.00 | 0.00 | 94 | |
| 20260505220040 | 52 | 151 | 0.0 | 2.0 | 0.00 | 0.00 | 0.00 | 94 | |
| 20260505213111 | 52 | 155 | 0.0 | 1.0 | 0.00 | 0.00 | 0.00 | 95 | |
| 20260505210040 | 52 | 0.0 | 0.0 | 0.00 | 0.00 | 0.00 | 95 | ||
| 20260505203112 | 53 | 0.0 | 1.0 | 0.00 | 0.00 | 0.00 | 94 | ||
| 20260505200042 | 54 | 166 | 0.0 | 2.0 | 0.00 | 0.00 | 0.00 | 93 | |
| 20260505193112 | 55 | 184 | 1.0 | 3.0 | 0.00 | 0.00 | 0.00 | 92 |